W1TTX Weather Reports


time (UTC)temp
F
wind
direction
speed
knots
gust
knots
rain 1hr
in
rain 24hr
in
rain mn
in
humidity
%
barometer
mb
20210920042212 53 0 0.0 0.0 0.00 0.00 0.00 98 1018.0
20210920041311 53 0 0.0 1.7 0.00 0.00 0.00 98 1018.1
20210920040411 53 0 0.0 1.7 0.00 0.00 0.00 98 1018.3
20210920035511 53 0 0.0 0.0 0.00 0.00 0.00 98 1018.1
20210920034611 53 0 0.0 0.0 0.00 0.00 0.00 98 1018.0
20210920033711 53 0 0.0 0.0 0.00 0.00 0.00 98 1018.2
20210920032810 53 0 0.0 0.0 0.00 0.00 0.00 98 1018.1
20210920031911 54 0 0.0 0.9 0.00 0.00 0.00 97 1017.9
20210920031010 54 0 0.0 0.9 0.00 0.00 0.00 97 1017.9
20210920030110 54 0 0.0 0.0 0.00 0.00 0.00 97 1017.9
20210920025212 55 0 0.0 0.0 0.00 0.00 0.00 97 1017.6
20210920024310 55 0 0.0 0.0 0.00 0.00 0.00 97 1017.6
20210920023412 54 0 0.0 0.0 0.00 0.00 0.00 97 1017.6
20210920022510 55 0 0.0 0.0 0.00 0.00 0.00 97 1017.6
20210920021610 55 0 0.0 0.0 0.00 0.00 0.00 97 1017.5
20210920020710 55 0 0.0 0.0 0.00 0.00 0.00 97 1017.5
20210920015810 55 0 0.0 0.0 0.00 0.00 0.00 97 1017.5
20210920014912 55 0 0.0 0.0 0.00 0.00 0.00 97 1017.4
20210920014010 55 0 0.0 0.0 0.00 0.00 0.00 97 1017.3
20210920013111 56 0 0.0 0.0 0.00 0.00 0.00 97 1017.4
20210920012211 56 0 0.0 0.9 0.00 0.00 0.00 97 1017.1
20210920011314 56 0 0.0 0.9 0.00 0.00 0.00 96 1017.0
20210920010411 57 0 0.0 1.7 0.00 0.00 0.00 95 1017.0
20210920005510 57 0 0.0 0.9 0.00 0.00 0.00 95 1016.9
20210920004611 57 0 0.0 1.7 0.00 0.00 0.00 94 1017.1
20210920003710 57 0 0.0 0.0 0.00 0.00 0.00 92 1017.0
20210920002810 58 0 0.0 0.0 0.00 0.00 0.00 91 1016.7
20210920001910 58 0 0.0 0.0 0.00 0.00 0.00 90 1016.6
20210920001010 58 0 0.0 0.0 0.00 0.00 0.00 89 1016.4
20210920000110 59 0 0.0 0.0 0.00 0.00 0.00 87 1016.3
20210919235210 60 0 0.0 0.9 0.00 0.00 0.00 85 1016.2
20210919234310 60 0 0.0 0.9 0.00 0.04 0.00 83 1016.2
20210919233411 61 0 0.0 1.7 0.00 0.05 0.00 79 1015.8
20210919232510 61 0 0.0 0.9 0.00 0.05 0.00 75 1015.8
20210919231610 62 0 0.0 0.9 0.00 0.06 0.00 72 1015.6
20210919230711 62 0 0.0 0.0 0.00 0.06 0.00 64 1015.5
20210919225811 62 0 0.0 0.9 0.00 0.06 0.00 63 1015.4
20210919224910 63 0 0.0 0.0 0.00 0.06 0.00 64 1015.4
20210919224010 63 0 0.0 0.0 0.00 0.06 0.00 63 1015.3
20210919223110 64 0 0.0 0.0 0.00 0.06 0.00 60 1015.1
20210919222210 64 0 0.0 0.0 0.00 0.06 0.00 57 1015.1
20210919221310 65 0 0.0 0.0 0.00 0.06 0.00 56 1015.2
20210919220410 66 0 0.0 0.0 0.00 0.06 0.00 54 1015.0
20210919215510 67 0 0.0 0.0 0.00 0.06 0.00 54 1015.0
20210919214610 67 0 0.0 0.0 0.00 0.06 0.00 53 1015.0
20210919213710 68 0 0.0 0.0 0.00 0.06 0.00 49 1014.9
20210919212810 68 0 0.0 0.0 0.00 0.06 0.00 49 1014.8
20210919211911 69 0 0.0 0.9 0.00 0.06 0.00 47 1014.7
20210919211010 69 0 0.0 1.7 0.00 0.06 0.00 46 1014.7
20210919210110 71 0 0.0 1.7 0.00 0.06 0.00 47 1014.7
20210919205213 72 0 0.0 0.0 0.00 0.06 0.00 44 1014.6
20210919204310 77 0 0.0 0.0 0.00 0.06 0.00 43 1014.7
20210919203410 78 0 0.0 0.0 0.00 0.06 0.00 39 1014.5
20210919202511 79 0 0.0 0.0 0.00 0.06 0.00 41 1014.5
20210919201611 79 0 0.0 0.0 0.00 0.06 0.00 42 1014.4
20210919200710 79 0 0.0 3.5 0.00 0.06 0.00 39 1014.4
20210919195810 80 0 0.0 0.9 0.00 0.06 0.00 41 1014.6
20210919194910 79 0 0.0 0.9 0.00 0.06 0.00 42 1014.4
20210919194011 80 0 0.0 0.0 0.00 0.06 0.00 42 1014.4
20210919193111 79 0 0.0 0.9 0.00 0.06 0.00 41 1014.5
20210919192210 80 0 0.0 0.9 0.00 0.06 0.00 43 1014.5
20210919191310 80 0 0.0 0.9 0.00 0.06 0.00 41 1014.5
20210919190411 80 0 0.0 1.7 0.00 0.06 0.00 39 1014.4
20210919185510 81 0 0.0 0.9 0.00 0.06 0.00 40 1014.6
20210919184610 82 0 0.0 1.7 0.00 0.06 0.00 35 1014.5
20210919183710 81 0 0.0 1.7 0.00 0.06 0.00 37 1014.5
20210919182810 80 0 0.0 0.0 0.00 0.06 0.00 41 1014.6
20210919181911 80 0 0.0 0.9 0.00 0.06 0.00 40 1014.6
20210919181010 79 0 0.0 3.5 0.00 0.06 0.00 42 1014.7
20210919180110 79 176 0.9 3.5 0.00 0.06 0.00 41 1014.8
20210919175210 79 0 0.0 0.9 0.00 0.06 0.00 38 1014.8
20210919174311 79 0 0.0 2.6 0.00 0.06 0.00 39 1015.0
20210919173417 78 0 0.0 1.7 0.00 0.06 0.00 45 1014.9
20210919172510 79 0 0.0 3.5 0.00 0.06 0.00 40 1015.0
20210919171611 78 0 0.0 1.7 0.00 0.06 0.00 44 1015.0
20210919170710 78 0 0.0 3.5 0.00 0.06 0.00 41 1014.9
20210919165810 77 0 0.0 4.3 0.00 0.06 0.00 43 1015.0
20210919164910 78 0 0.0 1.7 0.00 0.06 0.00 43 1015.2
20210919164010 78 0 0.0 3.5 0.00 0.06 0.00 44 1015.2
20210919163113 78 0 0.0 3.5 0.00 0.06 0.00 38 1015.3
20210919162210 78 0 0.0 3.5 0.00 0.06 0.00 43 1015.3
20210919161310 77 0 0.0 1.7 0.00 0.06 0.00 43 1015.2
20210919160411 77 0 0.0 1.7 0.00 0.06 0.00 44 1015.4
20210919155510 77 0 0.0 1.7 0.00 0.06 0.00 45 1015.2
20210919154610 76 0 0.0 0.9 0.00 0.06 0.00 46 1015.3
20210919153710 76 0 0.0 0.9 0.00 0.06 0.00 46 1015.3
20210919152811 76 0 0.0 2.6 0.00 0.06 0.00 48 1015.4
20210919151911 76 0 0.0 2.6 0.00 0.06 0.00 46 1015.3
20210919151010 75 0 0.0 0.9 0.00 0.06 0.00 46 1015.4
20210919150111 75 0 0.0 0.9 0.00 0.06 0.00 46 1015.4
20210919145212 75 0 0.0 0.9 0.00 0.06 0.00 47 1015.4
20210919144310 75 0 0.0 0.0 0.00 0.06 0.00 48 1015.5
20210919143412 74 0 0.0 0.0 0.00 0.06 0.00 49 1015.4
20210919142510 73 0 0.0 1.7 0.00 0.06 0.00 52 1015.3
20210919141610 73 0 0.0 1.7 0.00 0.06 0.00 52 1015.3
20210919140710 72 0 0.0 1.7 0.00 0.06 0.00 53 1015.1
20210919135810 71 0 0.0 0.9 0.00 0.06 0.00 54 1015.1
20210919134910 71 0 0.0 4.3 0.00 0.06 0.00 54 1015.0
20210919134010 70 0 0.0 0.0 0.00 0.06 0.00 55 1015.0
20210919133110 70 0 0.0 0.0 0.00 0.06 0.00 58 1015.0
20210919132211 69 0 0.0 1.7 0.00 0.06 0.00 59 1014.8
20210919131311 69 0 0.0 0.0 0.00 0.06 0.00 59 1014.9
20210919130410 69 0 0.0 0.0 0.00 0.06 0.00 61 1014.8
20210919125510 69 0 0.0 0.0 0.00 0.06 0.00 63 1014.8
20210919124610 68 0 0.0 0.0 0.00 0.06 0.00 66 1014.8
20210919123710 66 0 0.0 0.0 0.00 0.06 0.00 71 1014.8
20210919122811 64 0 0.0 0.0 0.00 0.06 0.00 79 1014.6
20210919121911 61 0 0.0 0.0 0.00 0.06 0.00 85 1014.7
20210919121010 61 0 0.0 0.0 0.00 0.06 0.00 89 1014.7
20210919120110 61 0 0.0 0.0 0.00 0.06 0.00 98 1014.7
20210919115213 60 0 0.0 0.0 0.00 0.06 0.00 99 1014.7
20210919114313 56 0 0.0 0.0 0.00 0.06 0.00 99 1014.7
20210919113412 54 0 0.0 0.0 0.00 0.06 0.00 97 1014.6
20210919112512 54 0 0.0 0.0 0.00 0.06 0.00 97 1014.5
20210919111612 54 0 0.0 0.0 0.00 0.06 0.00 97 1014.4
20210919110712 54 0 0.0 0.0 0.00 0.06 0.00 97 1014.2
20210919105811 54 0 0.0 0.0 0.00 0.06 0.00 97 1014.0
20210919104911 54 0 0.0 0.0 0.00 0.06 0.00 97 1013.9
20210919104011 54 0 0.0 0.0 0.00 0.06 0.00 97 1013.6
20210919103111 54 0 0.0 0.0 0.00 0.06 0.00 97 1013.6
20210919102211 54 0 0.0 0.0 0.00 0.06 0.00 97 1013.4
20210919101310 54 0 0.0 0.0 0.00 0.06 0.00 97 1013.3
20210919100411 55 0 0.0 0.0 0.00 0.06 0.00 97 1013.2
20210919095510 55 0 0.0 0.0 0.00 0.06 0.00 97 1013.1
20210919094612 55 0 0.0 0.0 0.00 0.06 0.00 97 1013.1
20210919093711 55 0 0.0 0.0 0.00 0.06 0.00 97 1013.1
20210919092811 55 0 0.0 0.0 0.00 0.06 0.00 97 1012.9
20210919091915 55 0 0.0 0.0 0.00 0.06 0.00 97 1012.9
20210919091011 55 0 0.0 0.0 0.00 0.06 0.00 97 1012.8
20210919090112 56 0 0.0 0.0 0.00 0.06 0.00 99 1012.7
20210919085211 56 0 0.0 0.0 0.00 0.06 0.00 99 1012.6
20210919084311 56 0 0.0 0.0 0.00 0.06 0.00 99 1012.6
20210919083411 56 0 0.0 0.0 0.00 0.06 0.00 99 1012.4
20210919082512 57 0 0.0 0.0 0.00 0.06 0.00 99 1012.4
20210919081611 57 0 0.0 0.0 0.00 0.06 0.00 99 1012.3
20210919080711 57 0 0.0 0.0 0.00 0.06 0.00 99 1012.2
20210919075811 57 0 0.0 2.6 0.00 0.06 0.00 99 1012.0
20210919074912 57 0 0.0 0.0 0.00 0.06 0.00 99 1012.1
20210919074011 58 0 0.0 0.0 0.00 0.06 0.00 99 1012.0
20210919073111 58 0 0.0 0.0 0.00 0.06 0.00 99 1011.9
20210919072211 58 0 0.0 0.0 0.00 0.06 0.00 99 1011.8
20210919071312 58 0 0.0 0.0 0.00 0.06 0.00 99 1011.8
20210919070411 58 0 0.0 0.0 0.00 0.06 0.00 99 1011.7
20210919065511 58 0 0.0 0.0 0.00 0.06 0.00 99 1011.7
20210919064611 59 0 0.0 0.0 0.00 0.06 0.00 99 1011.7
20210919063711 59 0 0.0 0.0 0.00 0.06 0.00 99 1011.8
20210919062812 59 0 0.0 0.0 0.00 0.06 0.00 99 1011.8
20210919061915 59 0 0.0 0.0 0.00 0.06 0.00 99 1011.8
20210919061012 60 0 0.0 0.0 0.00 0.06 0.00 99 1011.7
20210919060122 60 0 0.0 0.0 0.00 0.06 0.00 99 1011.9
20210919055213 60 0 0.0 0.0 0.00 0.06 0.00 99 1011.8
20210919054311 61 0 0.0 0.0 0.00 0.06 0.00 98 1011.8
20210919053415 61 0 0.0 0.0 0.00 0.06 0.00 98 1011.7
20210919052513 62 0 0.0 0.0 0.00 0.06 0.00 98 1011.8
20210919051613 62 0 0.0 0.0 0.00 0.06 0.00 98 1011.7
20210919050713 63 0 0.0 0.0 0.00 0.06 0.00 97 1011.8
20210919045811 65 0 0.0 0.0 0.00 0.06 0.00 99 1011.9
20210919044912 65 0 0.0 0.0 0.00 0.06 0.00 99 1011.9
20210919044018 65 0 0.0 0.0 0.00 0.06 0.00 99 1011.9
20210919043112 65 0 0.0 0.0 0.00 0.06 0.00 99 1011.9